weather.gov     
National Weather Service

Regional Weather Roundup
NWS Homepage
This page is being discontinued on March 12, 2014.
The same data is available at this site. Please update your bookmarks.
Thank you, and we apologize for the inconvenience.
Please send an email to SR-SRH.Webmaster@noaa.gov with any concerns.


Current Version
Previous Version:    01  02  03  04  05  06  07  08  09  10  11  12  13  14  15  16  17  18  19  20  21  22  23  24  25  26  
[Printable]
649
ASUS42 KFFC 020903
RWRGA
WEATHER ROUNDUP FOR GEORGIA
NATIONAL WEATHER SERVICE PEACHTREE CITY GA
500 AM EDT TUE SEP 02 2014

NOTE: "FAIR" INDICATES FEW OR NO CLOUDS BELOW 12,000 FEET WITH NO
SIGNIFICANT WEATHER AND/OR OBSTRUCTIONS TO VISIBILITY.

* = USE WITH CAUTION. THE STATIONS MARKED WITH AN ASTERISK MAY NOT
REPORT WEATHER SUCH AS PRECIPITATION, FOG, OR THUNDER AND ARE NOT
QUALITY CONTROLLED BY NWS.

THE REMARK "TC" DENOTES TEMPERATURE READING IN DEGREES CELSIUS.

GAZ001>058-021000-
NORTH GEORGIA

CITY           SKY/WX    TMP DP  RH WIND       PRES   REMARKS
ATLANTA        PTCLDY    72  69  90 SW3       30.09F
ATHENS         CLEAR     71  69  93 CALM      30.09S
CHAMBLEE       CLEAR     71  68  90 CALM      30.09S
PEACHTREE CITY CLEAR     69  68  96 CALM      30.10R
ROME           PTCLDY    69  68  96 CALM      30.08S
WEST ATLANTA   CLEAR     71  68  90 CALM      30.09S
GAINESVILLE    PTCLDY    73  70  90 W3        30.13S
CARTERSVILLE   CLEAR     69  67  93 CALM      30.10R


CITY           SKY/WX    TMP DP  RH WIND       PRES   REMARKS
DALTON*        PTCLDY    72  72 100 CALM      30.09F
MARIETTA       PTCLDY    72  70  94 W2        30.10S
$$

GAZ059>098-102>109-021000-
CENTRAL GEORGIA

CITY           SKY/WX    TMP DP  RH WIND       PRES   REMARKS
AUGUSTA-BUSH   PTCLDY    73  72  96 E3        30.05S FOG
AUGUSTA-DANIEL PTCLDY    77  72  84 N7        30.07S
COLUMBUS       PTCLDY    75  71  87 CALM      30.05S
MACON          MOCLDY    72  72 100 CALM      30.05S
ROBINS AFB     MOCLDY    73  72  97 N3        30.04S


CITY           SKY/WX    TMP DP  RH WIND       PRES   REMARKS
LAGRANGE*      PTCLDY    73  72  97 CALM      30.07S
SYLVANIA*      CLEAR     75  74  97 CALM      30.06S
MILLEDGEVILLE* MOCLDY    72  72 100 CALM      30.07S
$$

GAZ099>101-110>166-021000-
SOUTH GEORGIA

CITY           SKY/WX    TMP DP  RH WIND       PRES   REMARKS
SAVANNAH       CLEAR     77  74  90 CALM      30.05F
VALDOSTA       MOCLDY    74  72  93 NE3       30.04R
ALMA           PTCLDY    73  72  96 CALM      30.04R
ST SIMONS      PTCLDY    80  75  84 S6        30.03F
FT STEWART     CLEAR     74  73  94 CALM      30.03S
ALBANY         CLEAR     74  72  93 CALM      30.05R
HUNTER AFB     CLEAR     76  75  96 CALM      30.02F
MOODY AFB      MOCLDY    73  72  95 SE2       30.04R
BRUNSWICK      PTCLDY    79  73  83 CALM      30.03F


CITY           SKY/WX    TMP DP  RH WIND       PRES   REMARKS
BAINBRIDGE*    CLEAR     77  73  88 CALM      30.03R
MOULTRIE*      CLEAR     73  72  94 CALM      30.05R
VIDALIA*         N/A     73  73 100 CALM      30.04S
WAYCROSS*      PTCLDY    78  77  98 CALM      30.03F
DOUGLAS*       MOCLDY    73  72  94 SE3       30.05S
$$




U.S. Dept. of Commerce
NOAA National Weather Service
1325 East West Highway
Silver Spring, MD 20910
E-mail: w-nws.webmaster@noaa.gov
Page last modified: May 16, 2007
NATIONAL WEATHER SERVICE: for Safety, for Work, for Fun - FOR LIFE